Location: Alphen
(52.1351°N, 4.6549°E)
Time: 01:53:44
(UTC+00:00)

NOSS 3-3 (A) - Pass Details

Date: 27 January 2021
Orbit: 813 x 1399 km, 63.4° (Epoch: 25 February)

Event Time Altitude Azimuth Distance (km) Brightness Sun altitude
Exits shadow 04:37:22 40° 314° (NW) 1,687 4.9 -26.1°
Maximum altitude 04:40:28 89° 231° (SW) 1,251 4.4 -25.7°
Drops below altitude 10° 04:48:48 10° 138° (SE) 3,390 7.3 -24.4°
Sets 04:51:47 0° 138° (SE) 4,403 8.0 -23.9°
